| time (UTC) | temp F | wind direction | speed MPH | gust MPH | rain 1hr in | rain 24hr in | rain mn in | humidity % | barometer mb |
| 20260509020732 | 58 | 165 | 0.0 | 2.0 | 0.00 | 0.00 | 0.00 | 62 | 1004.9 |
| 20260509020451 | 58 | 201 | 2.0 | 2.0 | 0.00 | 0.00 | 0.00 | 63 | 1004.6 |
| 20260509015732 | 58 | 180 | 0.0 | 2.0 | 0.00 | 0.00 | 0.00 | 62 | 1004.6 |
| 20260509015450 | 59 | 186 | 1.0 | 2.0 | 0.00 | 0.00 | 0.00 | 61 | 1004.6 |
| 20260509014731 | 59 | 195 | 1.0 | 2.0 | 0.00 | 0.00 | 0.00 | 62 | 1004.9 |
| 20260509014716 | 59 | 162 | 1.0 | 2.0 | 0.00 | 0.00 | 0.00 | 62 | 1004.9 |
| 20260509014342 | 59 | 224 | 1.0 | 2.0 | 0.00 | 0.00 | 0.00 | 61 | 1004.6 |
| 20260509013449 | 59 | 179 | 1.0 | 2.0 | 0.00 | 0.00 | 0.00 | 60 | 1004.6 |
| 20260509012729 | 60 | 202 | 0.0 | 2.0 | 0.00 | 0.00 | 0.00 | 60 | 1004.6 |
| 20260509012228 | 60 | 89 | 0.0 | 2.0 | 0.00 | 0.00 | 0.00 | 59 | 1004.6 |
| 20260509011726 | 61 | 173 | 2.0 | 3.0 | 0.00 | 0.00 | 0.00 | 59 | 1004.9 |
| 20260509011228 | 61 | 218 | 2.0 | 3.0 | 0.00 | 0.00 | 0.00 | 58 | 1004.6 |
| 20260509010727 | 61 | 207 | 2.0 | 3.0 | 0.00 | 0.00 | 0.00 | 58 | 1004.6 |
| 20260509010225 | 62 | 206 | 2.0 | 4.0 | 0.00 | 0.00 | 0.00 | 58 | 1004.6 |
| 20260509005725 | 62 | 172 | 2.0 | 5.0 | 0.00 | 0.00 | 0.00 | 57 | 1004.6 |
| 20260509005224 | 62 | 215 | 3.0 | 5.0 | 0.00 | 0.00 | 0.00 | 56 | 1004.6 |
| 20260509004723 | 62 | 187 | 2.0 | 4.0 | 0.00 | 0.00 | 0.00 | 56 | 1004.6 |
| 20260509004222 | 63 | 221 | 3.0 | 5.0 | 0.00 | 0.00 | 0.00 | 56 | 1004.6 |
| 20260509003724 | 63 | 245 | 4.0 | 5.0 | 0.00 | 0.00 | 0.00 | 56 | 1004.9 |
| 20260509003220 | 63 | 195 | 1.0 | 5.0 | 0.00 | 0.00 | 0.00 | 55 | 1004.6 |
| 20260509002722 | 64 | 245 | 3.0 | 5.0 | 0.00 | 0.00 | 0.00 | 54 | 1004.6 |
| 20260509002221 | 64 | 256 | 5.0 | 9.0 | 0.00 | 0.00 | 0.00 | 53 | 1004.6 |
| 20260509001721 | 64 | 223 | 2.0 | 9.0 | 0.00 | 0.00 | 0.00 | 52 | 1004.9 |
| 20260509000718 | 64 | 198 | 3.0 | 6.0 | 0.00 | 0.00 | 0.00 | 51 | 1004.9 |
| 20260509000219 | 64 | 200 | 0.0 | 4.0 | 0.00 | 0.00 | 0.00 | 49 | 1004.9 |
| 20260508235719 | 64 | 173 | 1.0 | 3.0 | 0.00 | 0.00 | 0.00 | 50 | 1004.9 |
| 20260508235217 | 64 | 190 | 0.0 | 3.0 | 0.00 | 0.00 | 0.00 | 51 | 1004.9 |
| 20260508234717 | 64 | 231 | 0.0 | 3.0 | 0.00 | 0.00 | 0.00 | 50 | 1004.9 |
| 20260508234217 | 64 | 183 | 2.0 | 2.0 | 0.00 | 0.00 | 0.00 | 50 | 1004.9 |
| 20260508233715 | 65 | 205 | 0.0 | 4.0 | 0.00 | 0.00 | 0.00 | 49 | 1004.9 |
| 20260508233215 | 65 | 137 | 2.0 | 4.0 | 0.00 | 0.00 | 0.00 | 46 | 1005.2 |
| 20260508232935 | 65 | 218 | 0.0 | 3.0 | 0.00 | 0.00 | 0.00 | 45 | 1005.2 |
| 20260508232218 | 65 | 237 | 2.0 | 5.0 | 0.00 | 0.00 | 0.00 | 44 | 1005.2 |
| 20260508231713 | 65 | 168 | 2.0 | 5.0 | 0.00 | 0.00 | 0.00 | 44 | 1004.9 |
| 20260508231216 | 65 | 148 | 2.0 | 3.0 | 0.00 | 0.00 | 0.00 | 45 | 1005.2 |
| 20260508230714 | 65 | 180 | 1.0 | 3.0 | 0.00 | 0.00 | 0.00 | 47 | 1004.9 |
| 20260508230420 | 65 | 137 | 4.0 | 4.0 | 0.00 | 0.00 | 0.00 | 44 | 1005.2 |
| 20260508230311 | 65 | 150 | 0.0 | 4.0 | 0.00 | 0.00 | 0.00 | 45 | 1004.9 |
| 20260508225212 | 64 | 183 | 1.0 | 3.0 | 0.00 | 0.00 | 0.00 | 44 | 1005.2 |
| 20260508224713 | 64 | 201 | 1.0 | 3.0 | 0.00 | 0.00 | 0.00 | 47 | 1004.9 |
| 20260508224209 | 64 | 196 | 2.0 | 3.0 | 0.00 | 0.00 | 0.00 | 46 | 1005.2 |
| 20260508223710 | 64 | 208 | 2.0 | 3.0 | 0.00 | 0.00 | 0.00 | 48 | 1005.2 |
| 20260508223208 | 65 | 205 | 0.0 | 3.0 | 0.00 | 0.00 | 0.00 | 46 | 1005.2 |
| 20260508222710 | 65 | 259 | 2.0 | 4.0 | 0.00 | 0.00 | 0.00 | 46 | 1005.2 |
| 20260508222429 | 65 | 197 | 2.0 | 4.0 | 0.00 | 0.00 | 0.00 | 45 | 1004.9 |
| 20260508221707 | 65 | 213 | 2.0 | 4.0 | 0.00 | 0.00 | 0.00 | 47 | 1005.2 |
| 20260508221207 | 65 | 158 | 3.0 | 4.0 | 0.00 | 0.00 | 0.00 | 46 | 1005.2 |
| 20260508220707 | 65 | 210 | 1.0 | 4.0 | 0.00 | 0.00 | 0.00 | 47 | 1005.2 |
| 20260508220218 | 65 | 164 | 1.0 | 6.0 | 0.00 | 0.00 | 0.00 | 45 | 1005.2 |
| 20260508215705 | 65 | 152 | 4.0 | 6.0 | 0.00 | 0.00 | 0.00 | 46 | 1005.2 |
| 20260508215205 | 64 | 216 | 0.0 | 4.0 | 0.00 | 0.00 | 0.00 | 45 | 1005.2 |
| 20260508214705 | 64 | 170 | 2.0 | 3.0 | 0.00 | 0.00 | 0.00 | 46 | 1005.2 |
| 20260508214204 | 64 | 214 | 2.0 | 4.0 | 0.00 | 0.00 | 0.00 | 46 | 1005.2 |
| 20260508213703 | 64 | 218 | 2.0 | 4.0 | 0.00 | 0.00 | 0.00 | 46 | 1005.6 |
| 20260508213205 | 64 | 166 | 1.0 | 4.0 | 0.00 | 0.00 | 0.00 | 48 | 1005.2 |
| 20260508212703 | 64 | 215 | 1.0 | 4.0 | 0.00 | 0.01 | 0.00 | 46 | 1005.2 |
| 20260508212203 | 64 | 237 | 3.0 | 4.0 | 0.00 | 0.01 | 0.00 | 49 | 1005.6 |
| 20260508211702 | 64 | 157 | 3.0 | 4.0 | 0.00 | 0.01 | 0.00 | 48 | 1005.6 |
| 20260508211203 | 64 | 160 | 3.0 | 4.0 | 0.00 | 0.02 | 0.00 | 51 | 1006.0 |
| 20260508210659 | 64 | 299 | 0.0 | 5.0 | 0.00 | 0.02 | 0.00 | 51 | 1005.6 |
| 20260508210203 | 64 | 106 | 2.0 | 5.0 | 0.00 | 0.02 | 0.00 | 51 | 1005.6 |
| 20260508205700 | 64 | 119 | 4.0 | 4.0 | 0.00 | 0.02 | 0.00 | 51 | 1005.6 |
| 20260508205158 | 64 | 126 | 0.0 | 4.0 | 0.00 | 0.02 | 0.00 | 52 | 1005.6 |
| 20260508204658 | 64 | 180 | 2.0 | 4.0 | 0.00 | 0.02 | 0.00 | 50 | 1006.0 |
| 20260508204159 | 64 | 190 | 1.0 | 4.0 | 0.00 | 0.02 | 0.00 | 49 | 1006.0 |
| 20260508203659 | 64 | 157 | 2.0 | 4.0 | 0.00 | 0.02 | 0.00 | 52 | 1006.0 |
| 20260508203424 | 64 | 145 | 2.0 | 4.0 | 0.00 | 0.02 | 0.00 | 52 | 1006.3 |
| 20260508202923 | 64 | 182 | 3.0 | 3.0 | 0.00 | 0.02 | 0.00 | 49 | 1006.0 |
| 20260508202156 | 64 | 117 | 1.0 | 4.0 | 0.00 | 0.02 | 0.00 | 50 | 1006.3 |
| 20260508201655 | 64 | 113 | 1.0 | 9.0 | 0.00 | 0.02 | 0.00 | 49 | 1006.7 |
| 20260508201155 | 64 | 166 | 4.0 | 9.0 | 0.00 | 0.02 | 0.00 | 50 | 1006.3 |
| 20260508200922 | 64 | 166 | 2.0 | 8.0 | 0.00 | 0.02 | 0.00 | 52 | 1006.3 |
| 20260508200353 | 64 | 155 | 6.0 | 10.0 | 0.00 | 0.02 | 0.00 | 52 | 1006.7 |
| 20260508200244 | 63 | 180 | 2.0 | 10.0 | 0.00 | 0.02 | 0.00 | 50 | 1006.7 |
| 20260508195154 | 65 | 209 | 3.0 | 9.0 | 0.00 | 0.02 | 0.00 | 51 | 1006.7 |
| 20260508194652 | 65 | 153 | 7.0 | 9.0 | 0.00 | 0.02 | 0.00 | 49 | 1006.7 |
| 20260508194415 | 66 | 195 | 3.0 | 7.0 | 0.00 | 0.02 | 0.00 | 50 | 1007.0 |
| 20260508193652 | 65 | 194 | 3.0 | 7.0 | 0.00 | 0.02 | 0.00 | 48 | 1006.7 |
| 20260508193406 | 64 | 182 | 2.0 | 7.0 | 0.00 | 0.02 | 0.00 | 50 | 1006.7 |
| 20260508192910 | 64 | 232 | 1.0 | 7.0 | 0.00 | 0.02 | 0.00 | 51 | 1007.0 |
| 20260508192151 | 64 | 140 | 3.0 | 5.0 | 0.00 | 0.02 | 0.00 | 48 | 1007.0 |
| 20260508191650 | 64 | 297 | 2.0 | 4.0 | 0.00 | 0.02 | 0.00 | 46 | 1007.0 |
| 20260508191150 | 64 | 227 | 0.0 | 3.0 | 0.00 | 0.02 | 0.00 | 45 | 1007.4 |
| 20260508191139 | 64 | 3 | 2.0 | 4.0 | 0.00 | 0.02 | 0.00 | 44 | 1007.0 |
| 20260508190147 | 65 | 309 | 2.0 | 6.0 | 0.00 | 0.02 | 0.00 | 46 | 1007.4 |
| 20260508185647 | 65 | 262 | 2.0 | 9.0 | 0.00 | 0.02 | 0.00 | 47 | 1007.4 |
| 20260508185146 | 65 | 309 | 5.0 | 9.0 | 0.00 | 0.02 | 0.00 | 47 | 1007.4 |
| 20260508184646 | 65 | 231 | 0.0 | 6.0 | 0.00 | 0.02 | 0.00 | 45 | 1007.0 |
| 20260508184145 | 65 | 153 | 4.0 | 6.0 | 0.00 | 0.02 | 0.00 | 49 | 1007.4 |
| 20260508183647 | 65 | 298 | 3.0 | 7.0 | 0.00 | 0.02 | 0.00 | 42 | 1007.4 |
| 20260508183145 | 65 | 228 | 4.0 | 8.0 | 0.00 | 0.02 | 0.00 | 47 | 1007.4 |
| 20260508182645 | 65 | 175 | 4.0 | 9.0 | 0.00 | 0.02 | 0.00 | 53 | 1007.7 |
| 20260508182147 | 64 | 172 | 5.0 | 9.0 | 0.00 | 0.02 | 0.00 | 51 | 1007.7 |
| 20260508181642 | 64 | 99 | 4.0 | 6.0 | 0.00 | 0.02 | 0.00 | 52 | 1007.7 |
| 20260508181142 | 64 | 212 | 1.0 | 6.0 | 0.00 | 0.02 | 0.00 | 53 | 1008.0 |
| 20260508180640 | 63 | 170 | 4.0 | 6.0 | 0.00 | 0.02 | 0.00 | 52 | 1007.7 |
| 20260508180141 | 64 | 192 | 4.0 | 11.0 | 0.00 | 0.02 | 0.00 | 51 | 1008.0 |
| 20260508175907 | 63 | 100 | 2.0 | 11.0 | 0.00 | 0.02 | 0.00 | 50 | 1008.0 |
| 20260508175140 | 63 | 231 | 4.0 | 9.0 | 0.00 | 0.02 | 0.00 | 52 | 1008.0 |
| 20260508174858 | 63 | 247 | 3.0 | 9.0 | 0.00 | 0.02 | 0.00 | 46 | 1008.0 |
| 20260508174138 | 63 | 202 | 3.0 | 9.0 | 0.00 | 0.02 | 0.00 | 49 | 1008.4 |
| 20260508173638 | 63 | 92 | 3.0 | 8.0 | 0.00 | 0.02 | 0.00 | 51 | 1008.4 |
| 20260508173405 | 62 | 134 | 4.0 | 9.0 | 0.00 | 0.02 | 0.00 | 54 | 1008.0 |
| 20260508172639 | 62 | 46 | 1.0 | 11.0 | 0.00 | 0.02 | 0.00 | 51 | 1008.4 |
| 20260508172139 | 62 | 162 | 6.0 | 9.0 | 0.00 | 0.02 | 0.00 | 50 | 1008.7 |
| 20260508171637 | 62 | 163 | 5.0 | 10.0 | 0.00 | 0.02 | 0.00 | 51 | 1008.7 |
| 20260508171135 | 62 | 116 | 8.0 | 10.0 | 0.00 | 0.02 | 0.00 | 48 | 1008.7 |
| 20260508170636 | 62 | 183 | 4.0 | 8.0 | 0.00 | 0.02 | 0.00 | 47 | 1008.7 |
| 20260508170134 | 62 | 109 | 3.0 | 9.0 | 0.00 | 0.02 | 0.00 | 45 | 1008.7 |
| 20260508165633 | 62 | 129 | 9.0 | 9.0 | 0.00 | 0.02 | 0.00 | 49 | 1008.7 |
| 20260508165133 | 62 | 193 | 1.0 | 8.0 | 0.00 | 0.02 | 0.00 | 43 | 1008.7 |
| 20260508164633 | 62 | 118 | 4.0 | 7.0 | 0.00 | 0.02 | 0.00 | 47 | 1009.1 |
| 20260508164133 | 62 | 154 | 4.0 | 8.0 | 0.00 | 0.02 | 0.00 | 47 | 1009.1 |
| 20260508163633 | 62 | 178 | 4.0 | 8.0 | 0.00 | 0.02 | 0.00 | 43 | 1009.4 |
| 20260508163358 | 61 | 238 | 0.0 | 8.0 | 0.00 | 0.02 | 0.00 | 47 | 1009.4 |
| 20260508162631 | 61 | 250 | 2.0 | 8.0 | 0.00 | 0.02 | 0.00 | 42 | 1009.4 |
| 20260508162133 | 61 | 177 | 4.0 | 9.0 | 0.00 | 0.02 | 0.00 | 43 | 1009.1 |
| 20260508161629 | 61 | 166 | 3.0 | 9.0 | 0.00 | 0.02 | 0.00 | 45 | 1009.4 |
| 20260508161130 | 60 | 134 | 2.0 | 9.0 | 0.00 | 0.02 | 0.00 | 46 | 1009.4 |
| 20260508160628 | 60 | 112 | 5.0 | 8.0 | 0.00 | 0.02 | 0.00 | 46 | 1009.8 |
| 20260508160128 | 60 | 145 | 4.0 | 10.0 | 0.00 | 0.02 | 0.00 | 43 | 1009.1 |
| 20260508155627 | 60 | 43 | 3.0 | 10.0 | 0.00 | 0.02 | 0.00 | 45 | 1009.4 |
| 20260508155352 | 60 | 213 | 4.0 | 9.0 | 0.00 | 0.02 | 0.00 | 48 | 1009.4 |
| 20260508154626 | 59 | 98 | 5.0 | 11.0 | 0.00 | 0.02 | 0.00 | 48 | 1009.8 |
| 20260508154126 | 60 | 127 | 5.0 | 11.0 | 0.00 | 0.02 | 0.00 | 48 | 1009.8 |
| 20260508153627 | 60 | 179 | 3.0 | 9.0 | 0.00 | 0.02 | 0.00 | 50 | 1009.8 |
| 20260508153125 | 59 | 81 | 0.0 | 9.0 | 0.00 | 0.02 | 0.00 | 49 | 1009.8 |
| 20260508152626 | 59 | 113 | 4.0 | 9.0 | 0.00 | 0.02 | 0.00 | 46 | 1009.8 |
| 20260508152125 | 59 | 137 | 4.0 | 9.0 | 0.00 | 0.02 | 0.00 | 44 | 1009.8 |
| 20260508151626 | 59 | 149 | 5.0 | 7.0 | 0.00 | 0.02 | 0.00 | 53 | 1009.8 |
| 20260508151348 | 58 | 185 | 2.0 | 7.0 | 0.00 | 0.02 | 0.00 | 56 | 1009.8 |
| 20260508150623 | 58 | 183 | 4.0 | 9.0 | 0.00 | 0.02 | 0.00 | 54 | 1009.8 |
| 20260508150123 | 57 | 165 | 3.0 | 9.0 | 0.00 | 0.02 | 0.00 | 58 | 1009.8 |
| 20260508145626 | 57 | 155 | 3.0 | 9.0 | 0.00 | 0.02 | 0.00 | 55 | 1010.2 |
| 20260508145121 | 56 | 97 | 2.0 | 9.0 | 0.00 | 0.02 | 0.00 | 58 | 1010.2 |
| 20260508144620 | 56 | 126 | 6.0 | 9.0 | 0.00 | 0.02 | 0.00 | 59 | 1010.2 |
| 20260508144121 | 55 | 159 | 8.0 | 10.0 | 0.00 | 0.02 | 0.00 | 62 | 1010.2 |
| 20260508143618 | 55 | 121 | 3.0 | 10.0 | 0.00 | 0.02 | 0.00 | 64 | 1010.2 |
| 20260508143343 | 54 | 123 | 8.0 | 9.0 | 0.00 | 0.02 | 0.00 | 67 | 1010.2 |
| 20260508142618 | 54 | 105 | 3.0 | 8.0 | 0.00 | 0.02 | 0.00 | 67 | 1009.8 |
| 20260508142118 | 53 | 135 | 6.0 | 7.0 | 0.00 | 0.02 | 0.00 | 71 | 1010.5 |
| 20260508141632 | 53 | 139 | 4.0 | 9.0 | 0.00 | 0.02 | 0.00 | 71 | 1010.2 |
| 20260508141117 | 53 | 130 | 4.0 | 9.0 | 0.00 | 0.02 | 0.00 | 70 | 1010.5 |
| 20260508140615 | 53 | 132 | 3.0 | 7.0 | 0.00 | 0.02 | 0.00 | 72 | 1010.2 |
| 20260508140121 | 52 | 127 | 5.0 | 8.0 | 0.00 | 0.02 | 0.00 | 76 | 1010.2 |
| 20260508135615 | 52 | 149 | 6.0 | 8.0 | 0.00 | 0.02 | 0.00 | 73 | 1010.2 |
| 20260508135114 | 51 | 156 | 3.0 | 9.0 | 0.00 | 0.02 | 0.00 | 76 | 1010.5 |
| 20260508134845 | 51 | 120 | 3.0 | 9.0 | 0.00 | 0.02 | 0.00 | 76 | 1010.2 |
| 20260508134331 | 50 | 118 | 6.0 | 7.0 | 0.00 | 0.02 | 0.00 | 79 | 1010.2 |
| 20260508133614 | 50 | 159 | 4.0 | 7.0 | 0.00 | 0.02 | 0.00 | 79 | 1010.2 |
| 20260508133114 | 49 | 123 | 3.0 | 6.0 | 0.00 | 0.02 | 0.00 | 81 | 1010.2 |
| 20260508132837 | 49 | 76 | 4.0 | 6.0 | 0.00 | 0.02 | 0.00 | 81 | 1010.2 |
| 20260508132330 | 49 | 125 | 3.0 | 6.0 | 0.00 | 0.02 | 0.00 | 82 | 1010.2 |
| 20260508131611 | 48 | 93 | 4.0 | 7.0 | 0.00 | 0.02 | 0.00 | 83 | 1010.2 |
| 20260508131112 | 47 | 81 | 4.0 | 7.0 | 0.00 | 0.02 | 0.00 | 84 | 1009.8 |
| 20260508130610 | 47 | 82 | 5.0 | 6.0 | 0.00 | 0.02 | 0.00 | 85 | 1010.5 |
| 20260508130113 | 47 | 82 | 5.0 | 6.0 | 0.00 | 0.02 | 0.00 | 88 | 1010.2 |
| 20260508125608 | 46 | 108 | 3.0 | 5.0 | 0.00 | 0.02 | 0.00 | 88 | 1010.2 |
| 20260508125109 | 46 | 82 | 5.0 | 5.0 | 0.00 | 0.02 | 0.00 | 90 | 1010.2 |
| 20260508124606 | 45 | 85 | 3.0 | 4.0 | 0.00 | 0.02 | 0.00 | 91 | 1010.2 |
| 20260508124107 | 44 | 128 | 3.0 | 5.0 | 0.00 | 0.02 | 0.00 | 92 | 1010.2 |
| 20260508123606 | 44 | 110 | 2.0 | 8.0 | 0.00 | 0.02 | 0.00 | 93 | 1010.2 |
| 20260508123330 | 43 | 104 | 4.0 | 8.0 | 0.00 | 0.02 | 0.00 | 93 | 1010.2 |
| 20260508122606 | 43 | 82 | 3.0 | 6.0 | 0.00 | 0.02 | 0.00 | 94 | 1010.2 |
| 20260508122107 | 42 | 129 | 3.0 | 5.0 | 0.00 | 0.02 | 0.00 | 95 | 1010.5 |
| 20260508121824 | 42 | 87 | 3.0 | 5.0 | 0.00 | 0.02 | 0.00 | 96 | 1010.5 |
| 20260508121104 | 42 | 166 | 3.0 | 4.0 | 0.00 | 0.02 | 0.00 | 96 | 1010.5 |
| 20260508120604 | 41 | 108 | 2.0 | 4.0 | 0.00 | 0.02 | 0.00 | 97 | 1010.2 |
| 20260508120115 | 41 | 99 | 3.0 | 5.0 | 0.00 | 0.02 | 0.00 | 97 | 1010.5 |
| 20260508115604 | 41 | 78 | 3.0 | 6.0 | 0.00 | 0.02 | 0.00 | 97 | 1010.2 |
| 20260508115103 | 41 | 65 | 5.0 | 6.0 | 0.00 | 0.02 | 0.00 | 97 | 1010.2 |
| 20260508114821 | 40 | 57 | 3.0 | 5.0 | 0.00 | 0.02 | 0.00 | 97 | 1010.2 |
| 20260508114102 | 40 | 69 | 2.0 | 3.0 | 0.00 | 0.02 | 0.00 | 97 | 1010.2 |
| 20260508113825 | 39 | 64 | 1.0 | 2.0 | 0.00 | 0.02 | 0.00 | 97 | 1010.5 |
| 20260508113327 | 39 | 122 | 0.0 | 2.0 | 0.00 | 0.02 | 0.00 | 97 | 1010.2 |
| 20260508112559 | 39 | 149 | 1.0 | 3.0 | 0.00 | 0.02 | 0.00 | 97 | 1010.2 |
| 20260508112058 | 38 | 111 | 0.0 | 3.0 | 0.00 | 0.02 | 0.00 | 97 | 1010.2 |
| 20260508111558 | 38 | 76 | 0.0 | 2.0 | 0.00 | 0.02 | 0.00 | 97 | 1010.2 |
| 20260508111057 | 38 | 19 | 2.0 | 2.0 | 0.00 | 0.02 | 0.00 | 97 | 1009.8 |
| 20260508110107 | 37 | 66 | 0.0 | 2.0 | 0.00 | 0.02 | 0.00 | 96 | 1009.8 |
| 20260508105556 | 37 | 32 | 2.0 | 2.0 | 0.00 | 0.02 | 0.00 | 96 | 1009.8 |
| 20260508105055 | 37 | 101 | 1.0 | 1.0 | 0.00 | 0.02 | 0.00 | 96 | 1009.8 |
| 20260508104815 | 37 | 108 | 0.0 | 1.0 | 0.00 | 0.02 | 0.00 | 96 | 1009.8 |
| 20260508104055 | 37 | 44 | 0.0 | 2.0 | 0.00 | 0.02 | 0.00 | 96 | 1009.8 |
| 20260508103554 | 37 | 32 | 0.0 | 3.0 | 0.00 | 0.02 | 0.00 | 96 | 1009.8 |
| 20260508103053 | 37 | 50 | 2.0 | 3.0 | 0.00 | 0.02 | 0.00 | 96 | 1009.8 |
| 20260508102557 | 37 | 16 | 1.0 | 2.0 | 0.00 | 0.02 | 0.00 | 96 | 1009.8 |
| 20260508102052 | 38 | 15 | 1.0 | 2.0 | 0.00 | 0.02 | 0.00 | 96 | 1009.8 |
| 20260508101818 | 37 | 5 | 2.0 | 2.0 | 0.00 | 0.02 | 0.00 | 96 | 1009.8 |
| 20260508101053 | 37 | 53 | 0.0 | 2.0 | 0.00 | 0.02 | 0.00 | 96 | 1009.8 |
| 20260508100550 | 37 | 13 | 2.0 | 2.0 | 0.00 | 0.02 | 0.00 | 96 | 1009.8 |
| 20260508100327 | 37 | 25 | 1.0 | 2.0 | 0.00 | 0.02 | 0.00 | 95 | 1010.2 |
| 20260508095550 | 37 | 48 | 0.0 | 1.0 | 0.00 | 0.02 | 0.00 | 95 | 1009.8 |
| 20260508095050 | 37 | 119 | 0.0 | 1.0 | 0.00 | 0.02 | 0.00 | 95 | 1009.8 |
| 20260508094548 | 37 | 72 | 0.0 | 1.0 | 0.00 | 0.02 | 0.00 | 95 | 1010.2 |
| 20260508094048 | 37 | 147 | 0.0 | 2.0 | 0.00 | 0.02 | 0.00 | 95 | 1010.2 |
| 20260508093809 | 38 | 112 | 0.0 | 2.0 | 0.00 | 0.02 | 0.00 | 95 | 1010.2 |
| 20260508093046 | 38 | 55 | 0.0 | 0.0 | 0.00 | 0.02 | 0.00 | 95 | 1010.2 |
| 20260508092547 | 38 | 55 | 0.0 | 0.0 | 0.00 | 0.02 | 0.00 | 95 | 1010.5 |
| 20260508092045 | 38 | 55 | 0.0 | 1.0 | 0.00 | 0.02 | 0.00 | 95 | 1010.2 |
| 20260508091546 | 38 | 55 | 0.0 | 2.0 | 0.00 | 0.02 | 0.00 | 95 | 1010.2 |
| 20260508091044 | 38 | 69 | 0.0 | 2.0 | 0.00 | 0.02 | 0.00 | 95 | 1010.2 |
| 20260508090601 | 38 | 34 | 2.0 | 2.0 | 0.00 | 0.02 | 0.00 | 95 | 1010.2 |
| 20260508090044 | 38 | 38 | 2.0 | 2.0 | 0.00 | 0.02 | 0.00 | 94 | 1010.5 |
| 20260508085546 | 38 | 44 | 0.0 | 0.0 | 0.00 | 0.02 | 0.00 | 94 | 1010.2 |
| 20260508085043 | 38 | 44 | 0.0 | 2.0 | 0.00 | 0.02 | 0.00 | 94 | 1010.5 |
| 20260508084544 | 38 | 315 | 0.0 | 2.0 | 0.00 | 0.02 | 0.00 | 94 | 1010.5 |
| 20260508084049 | 38 | 46 | 1.0 | 2.0 | 0.00 | 0.02 | 0.00 | 94 | 1010.2 |
| 20260508084042 | 38 | 32 | 0.0 | 2.0 | 0.00 | 0.02 | 0.00 | 94 | 1010.2 |
| 20260508082840 | 39 | 89 | 0.0 | 3.0 | 0.00 | 0.02 | 0.00 | 93 | 1010.2 |
| 20260508082601 | 39 | 25 | 0.0 | 3.0 | 0.00 | 0.02 | 0.00 | 93 | 1010.5 |
| 20260508081841 | 39 | 24 | 2.0 | 2.0 | 0.00 | 0.02 | 0.00 | 93 | 1010.9 |
| 20260508081338 | 39 | 32 | 0.0 | 2.0 | 0.00 | 0.02 | 0.00 | 93 | 1010.5 |
| 20260508080840 | 39 | 60 | 0.0 | 2.0 | 0.00 | 0.02 | 0.00 | 93 | 1010.5 |
| 20260508080337 | 39 | 35 | 0.0 | 2.0 | 0.00 | 0.02 | 0.00 | 93 | 1010.9 |
| 20260508075837 | 39 | 76 | 0.0 | 1.0 | 0.00 | 0.02 | 0.00 | 93 | 1010.5 |
| 20260508075558 | 39 | 72 | 0.0 | 2.0 | 0.00 | 0.02 | 0.00 | 92 | 1010.5 |
| 20260508074836 | 39 | 19 | 0.0 | 2.0 | 0.00 | 0.02 | 0.00 | 92 | 1010.5 |
| 20260508074334 | 39 | 13 | 0.0 | 2.0 | 0.00 | 0.02 | 0.00 | 92 | 1010.9 |
| 20260508073840 | 39 | 32 | 0.0 | 2.0 | 0.00 | 0.02 | 0.00 | 91 | 1010.5 |
| 20260508073334 | 39 | 26 | 2.0 | 2.0 | 0.00 | 0.02 | 0.00 | 91 | 1010.9 |
| 20260508072835 | 40 | 5 | 2.0 | 2.0 | 0.00 | 0.02 | 0.00 | 90 | 1010.9 |
| 20260508072334 | 40 | 12 | 2.0 | 2.0 | 0.00 | 0.02 | 0.00 | 90 | 1010.9 |
| 20260508072054 | 40 | 47 | 1.0 | 2.0 | 0.00 | 0.02 | 0.00 | 90 | 1010.9 |
| 20260508071333 | 40 | 34 | 1.0 | 2.0 | 0.00 | 0.02 | 0.00 | 89 | 1010.9 |
| 20260508070832 | 40 | 29 | 2.0 | 2.0 | 0.00 | 0.02 | 0.00 | 89 | 1010.9 |
| 20260508070333 | 40 | 35 | 1.0 | 2.0 | 0.00 | 0.02 | 0.00 | 88 | 1010.9 |
| 20260508065832 | 41 | 66 | 0.0 | 2.0 | 0.00 | 0.02 | 0.00 | 88 | 1011.2 |
| 20260508065331 | 41 | 341 | 1.0 | 2.0 | 0.00 | 0.02 | 0.00 | 88 | 1010.9 |
| 20260508064829 | 41 | 298 | 1.0 | 2.0 | 0.00 | 0.02 | 0.00 | 88 | 1010.9 |
| 20260508064330 | 41 | 304 | 0.0 | 2.0 | 0.00 | 0.02 | 0.00 | 88 | 1011.2 |
| 20260508063832 | 41 | 326 | 0.0 | 3.0 | 0.00 | 0.02 | 0.00 | 87 | 1010.9 |
| 20260508063550 | 41 | 29 | 3.0 | 3.0 | 0.00 | 0.02 | 0.00 | 86 | 1010.9 |
| 20260508062830 | 41 | 320 | 2.0 | 3.0 | 0.00 | 0.02 | 0.00 | 85 | 1011.2 |
| 20260508062326 | 40 | 355 | 2.0 | 3.0 | 0.00 | 0.02 | 0.00 | 84 | 1010.9 |
| 20260508061826 | 40 | 343 | 1.0 | 3.0 | 0.00 | 0.02 | 0.00 | 83 | 1010.9 |
| 20260508061559 | 41 | 354 | 1.0 | 2.0 | 0.00 | 0.02 | 0.00 | 82 | 1011.2 |
| 20260508061318 | 41 | 322 | 2.0 | 2.0 | 0.00 | 0.02 | 0.00 | 81 | 1010.9 |
| 20260508060325 | 41 | 350 | 1.0 | 2.0 | 0.00 | 0.02 | 0.00 | 80 | 1010.9 |
| 20260508060043 | 42 | 324 | 1.0 | 2.0 | 0.00 | 0.02 | 0.00 | 80 | 1010.9 |
| 20260508055324 | 42 | 328 | 1.0 | 2.0 | 0.00 | 0.02 | 0.00 | 80 | 1010.9 |
| 20260508054823 | 42 | 323 | 1.0 | 2.0 | 0.00 | 0.02 | 0.00 | 79 | 1010.9 |
| 20260508054322 | 42 | 358 | 1.0 | 2.0 | 0.00 | 0.02 | 0.00 | 79 | 1010.9 |
| 20260508053823 | 42 | 343 | 1.0 | 2.0 | 0.00 | 0.02 | 0.00 | 79 | 1010.9 |
| 20260508053547 | 42 | 356 | 2.0 | 3.0 | 0.00 | 0.02 | 0.00 | 78 | 1010.9 |
| 20260508052823 | 42 | 352 | 2.0 | 3.0 | 0.00 | 0.02 | 0.00 | 78 | 1010.5 |
| 20260508052321 | 42 | 350 | 2.0 | 3.0 | 0.00 | 0.02 | 0.00 | 78 | 1010.5 |
| 20260508051821 | 42 | 354 | 2.0 | 2.0 | 0.00 | 0.02 | 0.00 | 80 | 1010.9 |
| 20260508051319 | 42 | 8 | 2.0 | 3.0 | 0.00 | 0.02 | 0.00 | 81 | 1010.9 |
| 20260508050818 | 42 | 25 | 2.0 | 3.0 | 0.00 | 0.02 | 0.00 | 81 | 1010.5 |
| 20260508050318 | 42 | 329 | 0.0 | 2.0 | 0.00 | 0.02 | 0.00 | 82 | 1010.9 |
| 20260508045818 | 42 | 10 | 0.0 | 2.0 | 0.00 | 0.02 | 0.02 | 82 | 1010.5 |
| 20260508045318 | 42 | 218 | 0.0 | 1.0 | 0.00 | 0.02 | 0.02 | 82 | 1010.5 |
| 20260508044820 | 42 | 175 | 0.0 | 1.0 | 0.00 | 0.02 | 0.02 | 82 | 1010.9 |
| 20260508044316 | 43 | 150 | 0.0 | 1.0 | 0.00 | 0.02 | 0.02 | 81 | 1010.5 |
| 20260508043817 | 43 | 135 | 0.0 | 4.0 | 0.00 | 0.02 | 0.02 | 80 | 1010.5 |
| 20260508043314 | 44 | 131 | 0.0 | 4.0 | 0.00 | 0.02 | 0.02 | 79 | 1010.5 |
| 20260508043257 | 44 | 153 | 4.0 | 4.0 | 0.00 | 0.02 | 0.02 | 78 | 1010.5 |
| 20260508042312 | 44 | 143 | 2.0 | 2.0 | 0.00 | 0.02 | 0.02 | 77 | 1010.5 |
| 20260508041815 | 45 | 55 | 0.0 | 2.0 | 0.00 | 0.02 | 0.02 | 77 | 1010.5 |
| 20260508041313 | 45 | 26 | 1.0 | 2.0 | 0.00 | 0.02 | 0.02 | 77 | 1010.2 |
| 20260508040812 | 45 | 24 | 1.0 | 2.0 | 0.00 | 0.02 | 0.02 | 76 | 1010.2 |
| 20260508040311 | 45 | 44 | 0.0 | 1.0 | 0.00 | 0.02 | 0.02 | 77 | 1010.2 |
| 20260508035812 | 45 | 39 | 0.0 | 2.0 | 0.00 | 0.02 | 0.02 | 78 | 1010.2 |
| 20260508035311 | 46 | 32 | 0.0 | 2.0 | 0.00 | 0.02 | 0.02 | 80 | 1010.2 |
| 20260508034810 | 46 | 25 | 2.0 | 4.0 | 0.00 | 0.02 | 0.02 | 80 | 1010.2 |
| 20260508034309 | 46 | 17 | 0.0 | 4.0 | 0.00 | 0.02 | 0.02 | 80 | 1009.8 |
| 20260508033809 | 46 | 30 | 1.0 | 2.0 | 0.00 | 0.02 | 0.02 | 77 | 1009.8 |
| 20260508033310 | 46 | 30 | 1.0 | 2.0 | 0.00 | 0.02 | 0.02 | 74 | 1009.8 |
| 20260508032810 | 46 | 43 | 1.0 | 2.0 | 0.00 | 0.02 | 0.02 | 73 | 1009.8 |
| 20260508032308 | 46 | 32 | 1.0 | 2.0 | 0.00 | 0.02 | 0.02 | 75 | 1009.8 |
| 20260508031808 | 46 | 34 | 1.0 | 2.0 | 0.00 | 0.02 | 0.02 | 75 | 1009.8 |
| 20260508031306 | 46 | 46 | 1.0 | 2.0 | 0.00 | 0.02 | 0.02 | 76 | 1009.8 |
| 20260508031031 | 46 | 44 | 0.0 | 1.0 | 0.00 | 0.02 | 0.02 | 76 | 1009.8 |
| 20260508030530 | 46 | 44 | 0.0 | 1.0 | 0.00 | 0.02 | 0.02 | 76 | 1009.8 |
| 20260508025810 | 46 | 13 | 0.0 | 1.0 | 0.00 | 0.02 | 0.02 | 77 | 1009.8 |
| 20260508025528 | 46 | 32 | 0.0 | 2.0 | 0.00 | 0.02 | 0.02 | 77 | 1010.2 |
| 20260508024805 | 46 | 38 | 1.0 | 2.0 | 0.00 | 0.02 | 0.02 | 77 | 1009.8 |
| 20260508024303 | 46 | 28 | 0.0 | 2.0 | 0.00 | 0.02 | 0.02 | 78 | 1009.8 |
| 20260508023803 | 46 | 35 | 1.0 | 2.0 | 0.00 | 0.02 | 0.02 | 77 | 1009.8 |
| 20260508023302 | 46 | 35 | 1.0 | 2.0 | 0.00 | 0.02 | 0.02 | 78 | 1009.8 |
| 20260508022801 | 47 | 21 | 2.0 | 2.0 | 0.00 | 0.02 | 0.02 | 81 | 1009.4 |
| 20260508022302 | 47 | 38 | 1.0 | 2.0 | 0.00 | 0.02 | 0.02 | 82 | 1009.8 |
| 20260508021800 | 47 | 57 | 1.0 | 2.0 | 0.00 | 0.02 | 0.02 | 81 | 1009.4 |
| 20260508021746 | 47 | 22 | 0.0 | 2.0 | 0.00 | 0.02 | 0.02 | 79 | 1009.4 |